This demonstration page uses our WeatherBlox Daily Observations layout. Learn more.

Left ArrowRight Arrow

39.51506, -84.39828

Hourly Observations for May 12, 2020

Temp ( °F °C ) Dew Point ( °F °C ) Humidity (%) Winds ( mph kmh ) Pressure ( in mb ) Visibility ( mi km ) Precip ( " mm )
12:15 am 00:15 Cloudy 43 6.3 37 2.5 77 77 WNW 3 6 30.25 1024 N/A 0 0
12:35 am 00:35 Cloudy 43 6.1 37 2.7 79 79 WNW 5 7 30.25 1024 N/A 0 0
12:55 am 00:55 Cloudy 43 6.2 36 2.4 77 77 WNW 5 7 30.25 1024 N/A 0 0
1:15 am 01:15 Cloudy 43 6.1 37 2.7 79 79 WNW 6 9 30.25 1024 N/A 0 0
1:35 am 01:35 Cloudy 43 6.1 37 2.6 79 79 NW 5 7 30.25 1024 N/A 0 0
1:55 am 01:55 Cloudy 43 5.9 37 2.7 80 80 NW 3 6 30.25 1024 N/A 0 0
2:15 am 02:15 Cloudy 42 5.7 37 3 83 83 Calm 30.26 1025 N/A 0 0
2:35 am 02:35 Cloudy 42 5.6 38 3.2 85 85 WNW 3 6 30.25 1024 N/A 0 0
2:55 am 02:55 Cloudy 42 5.7 37 2.9 82 82 W 3 6 30.25 1024 N/A 0 0
3:15 am 03:15 Cloudy 42 5.4 37 3 85 85 NW 3 6 30.25 1024 N/A 0 0
3:35 am 03:35 Cloudy 42 5.5 37 3 84 84 Calm 30.26 1025 N/A 0 0
3:55 am 03:55 Cloudy 42 5.7 37 2.8 82 82 Calm 30.26 1025 N/A 0 0
4:15 am 04:15 undefined 41 5.1 37 2.5 83 83 Calm 30.25 1024 N/A 0 0
4:35 am 04:35 undefined 39 4.1 36 2 86 86 Calm 30.25 1025 N/A 0 0
4:55 am 04:55 undefined 38 3.5 36 2.2 91 91 Calm 30.27 1025 N/A 0 0
5:15 am 05:15 undefined 36 2 35 1.4 96 96 NE 3 6 30.27 1025 N/A 0 0
5:35 am 05:35 undefined 37 2.5 36 2.1 97 97 Calm 30.27 1025 N/A 0 0
5:55 am 05:55 undefined 33 0.7 33 0.3 97 97 Calm 30.28 1026 N/A 0 0
6:15 am 06:15 undefined 34 1.3 34 1.1 99 99 Calm 30.28 1025 N/A 0 0
6:35 am 06:35 undefined 33 0.8 33 0.6 99 99 Calm 30.29 1026 N/A 0 0
6:55 am 06:55 undefined 33 0.8 33 0.7 99 99 Calm 30.29 1026 N/A 0 0
7:15 am 07:15 undefined 34 1.1 34 0.9 99 99 Calm 30.3 1026 N/A 0 0
7:35 am 07:35 undefined 36 2.1 35 1.9 99 99 Calm 30.31 1026 N/A 0 0
7:55 am 07:55 undefined 39 3.9 38 3.4 97 97 Calm 30.31 1027 N/A 0 0
8:15 am 08:15 undefined 42 5.6 38 3.5 87 87 WSW 3 6 30.31 1026 N/A 0 0
8:35 am 08:35 Sunny 44 6.5 38 3.1 79 79 WSW 7 11 30.31 1026 N/A 0 0
8:55 am 08:55 Sunny 45 7.2 37 2.9 74 74 SW 7 11 30.32 1027 N/A 0 0
9:15 am 09:15 Sunny 47 8.1 37 3 71 71 SW 7 11 30.31 1027 N/A 0 0
9:35 am 09:35 Sunny 48 8.9 37 2.6 65 65 SW 7 11 30.31 1026 N/A 0 0
9:55 am 09:55 Sunny 49 9.7 37 2.7 62 62 WSW 6 9 30.31 1026 N/A 0 0
10:15 am 10:15 Sunny 50 10.1 35 1.9 57 57 WNW 5 7 30.31 1026 N/A 0 0
10:35 am 10:35 Partly Cloudy 51 10.6 32 0.2 49 49 W 3 6 30.31 1026 N/A 0 0
10:55 am 10:55 Partly Cloudy 52 11.1 30 -1 43 43 W 9 15 30.3 1026 N/A 0 0
11:15 am 11:15 Mostly Cloudy 52 11 30 -1 44 44 W 10 17 30.3 1026 N/A 0 0
11:35 am 11:35 Cloudy 52 11.1 29 -1.4 42 42 SW 5 7 30.29 1026 N/A 0 0
11:55 am 11:55 Cloudy 52 11 31 -0.3 46 46 WSW 9 15 30.3 1026 N/A 0 0
12:15 pm 12:15 Cloudy 53 11.5 32 0.1 46 46 Calm 30.29 1026 N/A 0 0
12:35 pm 12:35 Cloudy 52 11.3 31 -0.3 45 45 NNW 5 7 30.29 1026 N/A 0 0
12:55 pm 12:55 Mostly Cloudy 54 12.2 32 0 43 43 WNW 5 7 30.27 1025 N/A 0 0
1:15 pm 13:15 Cloudy 54 12 30 -1.2 40 40 W 9 15 30.27 1025 N/A 0 0
1:35 pm 13:35 Cloudy 54 12.4 31 -0.3 42 42 WNW 6 9 30.27 1025 N/A 0 0
1:55 pm 13:55 Cloudy 55 12.8 32 -0.2 41 41 WNW 9 15 30.27 1025 N/A 0 0
2:15 pm 14:15 Mostly Cloudy 55 12.9 31 -0.3 41 41 W 8 13 30.26 1025 N/A 0 0
2:35 pm 14:35 Mostly Cloudy 57 13.8 35 1.5 43 43 Calm 30.26 1025 N/A 0 0
2:55 pm 14:55 Mostly Cloudy 57 13.8 33 0.4 40 40 WNW 10 17 30.25 1024 N/A 0 0
3:15 pm 15:15 Cloudy 56 13.6 33 0.3 40 40 W 9 15 30.25 1024 N/A 0 0
3:35 pm 15:35 Cloudy 58 14.6 34 0.9 40 40 W 9 15 30.25 1024 N/A 0 0
3:55 pm 15:55 Mostly Cloudy 57 13.8 33 0.3 40 40 WSW 12 19 30.24 1024 N/A 0 0
4:15 pm 16:15 Mostly Cloudy 57 13.9 32 0.2 39 39 W 6 9 30.24 1024 N/A 0 0
4:35 pm 16:35 Cloudy 57 14.1 32 0.1 39 39 WNW 12 19 30.24 1024 N/A 0 0
4:55 pm 16:55 Mostly Cloudy 58 14.3 32 0.1 38 38 WNW 10 17 30.24 1024 N/A 0 0
5:15 pm 17:15 Partly Cloudy 60 15.3 32 0 35 35 W 7 11 30.23 1024 N/A 0 0
5:35 pm 17:35 Mostly Cloudy 59 15 32 0 36 36 WSW 8 13 30.23 1024 N/A 0 0
5:55 pm 17:55 Partly Cloudy 60 15.4 32 0.2 36 36 WSW 14 22 30.23 1024 N/A 0 0
6:15 pm 18:15 Mostly Cloudy 59 15 31 -0.8 34 34 WSW 7 11 30.23 1024 N/A 0 0
6:35 pm 18:35 Partly Cloudy 59 15.1 31 -0.4 35 35 WSW 7 11 30.23 1024 N/A 0 0
6:55 pm 18:55 Partly Cloudy 59 15.1 31 -0.5 35 35 WSW 9 15 30.23 1024 N/A 0 0
7:15 pm 19:15 Partly Cloudy 58 14.6 33 0.5 38 38 W 8 13 30.22 1023 N/A 0 0
7:35 pm 19:35 Mostly Cloudy 58 14.7 32 0 37 37 W 6 9 30.23 1024 N/A 0 0
7:55 pm 19:55 Partly Cloudy 57 13.9 34 1 42 42 WNW 3 6 30.23 1024 N/A 0 0
8:15 pm 20:15 Sunny 55 12.8 34 1.3 46 46 WNW 3 6 30.23 1024 N/A 0 0
8:35 pm 20:35 Sunny 53 11.5 36 2.2 53 53 Calm 30.24 1024 N/A 0 0
8:55 pm 20:55 Clear 49 9.6 39 4.1 69 69 Calm 30.24 1024 N/A 0 0
9:15 pm 21:15 Clear 47 8.5 38 3.6 72 72 Calm 30.24 1024 N/A 0 0
9:35 pm 21:35 Clear 46 7.8 38 3.4 74 74 Calm 30.24 1024 N/A 0 0
9:55 pm 21:55 Clear 45 7.3 38 3.3 76 76 Calm 30.26 1025 N/A 0 0
10:15 pm 22:15 Clear 44 6.5 36 2.3 75 75 WNW 3 6 30.26 1025 N/A 0 0
10:35 pm 22:35 Clear 43 6 37 2.8 80 80 Calm 30.26 1025 N/A 0 0
10:55 pm 22:55 Clear 42 5.6 37 2.5 81 81 NNE 3 6 30.26 1025 N/A 0 0
11:15 pm 23:15 undefined 40 4.2 36 2.3 88 88 Calm 30.27 1025 N/A 0 0
11:35 pm 23:35 undefined 40 4.4 37 2.8 89 89 Calm 30.27 1025 N/A 0 0
11:55 pm 23:55 undefined 39 4.1 36 2.2 88 88 Calm 30.27 1025 N/A 0 0

Powered by AerisWeather